P/2019 B2 ( Groeller )

Japanese version
Home page
Updated on February 8, 2019

---------------------------------------------------------------------

* Profile

Discovery Date January 26, 2019
Magnitude 18.0 mag
Discoverer H. Groeller (Catalina Sky Survey)

* Orbital Elements

Epoch 2019 June 6.0 TT = JDT 2458640.5
T 2019 June 8.61593 TT                                  MPCW
q   2.4150292            (2000.0)            P               Q
n   0.13028507     Peri.  358.92793     -0.99678160     -0.07811970
a   3.8536560      Node   176.43854     +0.07553751     -0.99043295
e   0.3733148      Incl.   16.83733     +0.02684260     -0.11375360
P   7.57
From 84 observations 2019 Jan. 4-Feb. 4, mean residual 0".6.

* Magnitudes Graph

        m1 = 13.5 + 5 log d + 10.0 log r

---------------------------------------------------------------------

The orbital elements are published on M.P.E.C. 2019-C21.
The magnitudes graphs are made with Comet for Windows.

---------------------------------------------------------------------

Copyright(C) Seiichi Yoshida (comet@aerith.net). All rights reserved.